Mitchell, SD

3:29 PM CST on December 06, 2019 (GMT -0600)
Mitchell Municipal

Weather History for KMHE - November, 2019

Change the Weather History Date:

Tuesday, November 19, 2019

  Actual Average Record
Temperature  
Mean Temperature 41 °F 32 °F  
Max Temperature 49 °F 42 °F 72 °F (1897)
Min Temperature 33 °F 22 °F -5 °F (1914)
Degree Days  
Heating Degree Days 24 33  
Month to date heating degree days 591 525  
Since 1 July heating degree days 1270 1166  
Cooling Degree Days 0 0  
Month to date cooling degree days 0 0  
Year to date cooling degree days 937 824  
Moisture  
Dew Point 31 °F    
Average Humidity 73    
Maximum Humidity 89    
Minimum Humidity 56    
Precipitation  
Precipitation 0.00 in 0.02 in 0.54 in (1948)
Month to date precipitation 0.12 0.58  
Year to date precipitation 34.12 20.87  
Snow  
Snow 0.00 in - 6.00 in (1948)
Month to date snowfall 0.6  
Since 1 July snowfall 0.6  
Since 1 September snowfall 0.6  
Snow Depth 0.00 in    
Sea Level Pressure  
Sea Level Pressure 29.89 in    
Wind  
Wind Speed 7 mph (NNW)    
Max Wind Speed 13 mph    
Max Gust Speed 17 mph    
Visibility 10 miles    
Events      
T = Trace of Precipitation, MM = Missing Value Source: NWS Daily Summary

Daily Weather History Graph

Daily Weather History Graph

Search for Another Location

Airport or City:

Astronomy

Nov. 19, 2019 Rise Set
Actual Time 7:31 AM CST 5:03 PM CST
Civil Twilight 7:00 AM CST 5:34 PM CST
Nautical Twilight 6:25 AM CST 6:09 PM CST
Astronomical Twilight 5:50 AM CST 6:43 PM CST
Moon No Moon Rise 1:41 PM CST (11/19)
Length of Visible Light 10h 34m
Length of Day
9h 31m
Waning Gibbous, 51% of the Moon is Illuminated
Nov 19
Waning Gibbous
Nov 19
Last Quarter
Nov 26
New
Dec 4
First Quarter
Dec 11
Full

Hourly Weather History & Observations

Time (CST) Temp. Windchill Dew Point Humidity Pressure Visibility Wind Dir Wind Speed Gust Speed Precip Events Conditions
12:53 AM 37.9 °F 31.5 °F 32.0 °F 79% 29.80 in 10.0 mi West 9.2 mph - N/A   Clear
1:53 AM 37.9 °F 30.9 °F 30.9 °F 76% 29.81 in 10.0 mi WNW 10.4 mph - N/A   Clear
2:53 AM 37.9 °F 30.9 °F 30.9 °F 76% 29.83 in 10.0 mi WNW 10.4 mph - N/A   Clear
3:53 AM 37.9 °F 30.9 °F 30.9 °F 76% 29.83 in 10.0 mi WNW 10.4 mph - N/A   Clear
4:53 AM 34.0 °F 28.0 °F 28.9 °F 82% 29.85 in 10.0 mi West 6.9 mph - N/A   Clear
5:53 AM 35.1 °F 28.6 °F 28.9 °F 78% 29.87 in 10.0 mi WNW 8.1 mph - N/A   Clear
6:53 AM 35.1 °F 29.3 °F 28.9 °F 78% 29.88 in 10.0 mi WNW 6.9 mph - N/A   Clear
7:53 AM 33.1 °F 26.9 °F 28.0 °F 82% 29.90 in 10.0 mi West 6.9 mph - N/A   Clear
8:53 AM 37.0 °F 31.6 °F 30.0 °F 76% 29.92 in 10.0 mi West 6.9 mph - N/A   Clear
9:53 AM 42.1 °F 36.1 °F 30.9 °F 65% 29.93 in 10.0 mi NW 10.4 mph - N/A   Clear
10:53 AM 44.1 °F 39.5 °F 33.1 °F 65% 29.94 in 10.0 mi NW 8.1 mph - N/A   Clear
11:53 AM 46.9 °F - 32.0 °F 56% 29.92 in 10.0 mi NW 6.9 mph - N/A   Clear
12:53 PM 48.0 °F - 33.1 °F 56% 29.91 in 10.0 mi NNW 6.9 mph - N/A   Clear
1:53 PM 48.0 °F - 33.1 °F 56% 29.90 in 10.0 mi Variable 3.5 mph - N/A   Clear
2:53 PM 48.9 °F - 33.1 °F 54% 29.88 in 10.0 mi ENE 4.6 mph - N/A   Clear
3:53 PM 48.0 °F - 33.1 °F 56% 29.87 in 10.0 mi ENE 4.6 mph - N/A   Clear
4:53 PM 43.0 °F 39.5 °F 33.1 °F 68% 29.89 in 10.0 mi ESE 5.8 mph - N/A   Clear
5:53 PM 39.0 °F 34.8 °F 32.0 °F 76% 29.90 in 10.0 mi East 5.8 mph - N/A   Clear
6:53 PM 37.0 °F 33.3 °F 32.0 °F 82% 29.92 in 10.0 mi East 4.6 mph - N/A   Clear
7:53 PM 35.1 °F 30.1 °F 30.9 °F 85% 29.93 in 10.0 mi East 5.8 mph - N/A   Clear
8:53 PM 34.0 °F 27.2 °F 30.0 °F 85% 29.93 in 10.0 mi East 8.1 mph - N/A   Clear
9:53 PM 36.0 °F 29.0 °F 32.0 °F 86% 29.93 in 10.0 mi East 9.2 mph - N/A   Clear
11:53 PM 37.0 °F 30.4 °F 33.1 °F 86% 29.91 in 10.0 mi ESE 9.2 mph - N/A   Clear